Time,TemperatureF,DewpointF,PressureIn,WindDirection,WindDirectionDegrees,WindSpeedMPH,WindSpeedGustMPH,Humidity,HourlyPrecipIn,Conditions,Clouds,dailyrainin,SoftwareType,DateUTC
2013-01-15 00:00:00,15.2,15.2,30.32,South,189,3.0,5.0,100,0.00,,,0.00,VWS V14.01,2013-01-15 06:00:00,
2013-01-15 00:03:00,15.6,15.6,30.32,South,185,7.0,7.0,100,0.00,,,0.00,VWS V14.01,2013-01-15 06:03:00,
2013-01-15 00:08:00,16.2,16.2,30.32,SSW,193,4.0,7.0,100,0.00,,,0.00,VWS V14.01,2013-01-15 06:08:00,
2013-01-15 00:13:00,16.5,16.5,30.32,SSW,192,1.0,7.0,100,0.00,,,0.00,VWS V14.01,2013-01-15 06:13:00,
2013-01-15 00:15:00,16.7,16.7,30.31,South,188,5.0,7.0,100,0.00,,,0.00,VWS V14.01,2013-01-15 06:15:00,
2013-01-15 00:18:00,16.7,16.7,30.31,South,178,3.0,7.0,100,0.00,,,0.00,VWS V14.01,2013-01-15 06:18:00,
2013-01-15 00:23:00,16.9,16.9,30.31,SSW,192,1.0,7.0,100,0.00,,,0.00,VWS V14.01,2013-01-15 06:23:00,
2013-01-15 00:28:00,17.0,17.0,30.31,SSW,193,3.0,8.0,100,0.00,,,0.00,VWS V14.01,2013-01-15 06:28:00,
2013-01-15 00:30:00,17.2,17.2,30.31,SSW,195,2.0,8.0,100,0.00,,,0.00,VWS V14.01,2013-01-15 06:30:00,
2013-01-15 00:33:00,17.2,17.2,30.31,SSW,199,4.0,9.0,100,0.00,,,0.00,VWS V14.01,2013-01-15 06:33:00,
2013-01-15 00:38:00,17.3,17.3,30.31,South,189,1.0,9.0,100,0.00,,,0.00,VWS V14.01,2013-01-15 06:38:00,
2013-01-15 00:43:00,17.5,17.5,30.31,South,182,2.0,9.0,100,0.00,,,0.00,VWS V14.01,2013-01-15 06:43:00,
2013-01-15 00:45:00,17.7,17.7,30.31,South,191,2.0,9.0,100,0.00,,,0.00,VWS V14.01,2013-01-15 06:45:00,
2013-01-15 00:48:00,17.7,17.7,30.31,SSW,192,6.0,7.0,100,0.00,,,0.00,VWS V14.01,2013-01-15 06:48:00,
2013-01-15 00:53:00,17.7,17.2,30.31,South,188,2.0,10.0,98,0.00,,,0.00,VWS V14.01,2013-01-15 06:53:00,
2013-01-15 00:58:00,17.7,16.8,30.31,South,188,5.0,10.0,96,0.00,,,0.00,VWS V14.01,2013-01-15 06:58:00,
2013-01-15 01:00:00,17.7,16.5,30.30,South,185,6.0,10.0,95,0.00,,,0.00,VWS V14.01,2013-01-15 07:00:00,
2013-01-15 01:03:00,17.7,16.0,30.30,SSW,192,5.0,12.0,93,0.00,,,0.00,VWS V14.01,2013-01-15 07:03:00,
2013-01-15 01:08:00,17.5,15.8,30.30,South,191,2.0,12.0,93,0.00,,,0.00,VWS V14.01,2013-01-15 07:08:00,
2013-01-15 01:13:00,17.3,15.6,30.30,South,186,3.0,12.0,93,0.00,,,0.00,VWS V14.01,2013-01-15 07:13:00,
2013-01-15 01:15:00,17.2,15.8,30.29,SSW,202,6.0,12.0,94,0.00,,,0.00,VWS V14.01,2013-01-15 07:15:00,
2013-01-15 01:18:00,17.2,15.3,30.29,SSW,196,4.0,7.0,92,0.00,,,0.00,VWS V14.01,2013-01-15 07:18:00,
2013-01-15 01:23:00,16.9,14.7,30.29,South,189,3.0,10.0,91,0.00,,,0.00,VWS V14.01,2013-01-15 07:23:00,
2013-01-15 01:28:00,16.7,14.8,30.29,SSW,198,5.0,10.0,92,0.00,,,0.00,VWS V14.01,2013-01-15 07:28:00,
2013-01-15 01:30:00,16.5,14.3,30.29,SSW,196,2.0,10.0,91,0.00,,,0.00,VWS V14.01,2013-01-15 07:30:00,
2013-01-15 01:33:00,16.4,14.5,30.29,South,185,3.0,5.0,92,0.00,,,0.00,VWS V14.01,2013-01-15 07:33:00,
2013-01-15 01:38:00,16.2,14.3,30.29,SSW,196,3.0,5.0,92,0.00,,,0.00,VWS V14.01,2013-01-15 07:38:00,
2013-01-15 01:43:00,16.1,14.4,30.29,South,186,2.0,7.0,93,0.00,,,0.00,VWS V14.01,2013-01-15 07:43:00,
2013-01-15 01:45:00,16.1,14.2,30.29,South,188,3.0,7.0,92,0.00,,,0.00,VWS V14.01,2013-01-15 07:45:00,
2013-01-15 01:48:00,16.1,14.2,30.29,SSW,192,3.0,6.0,92,0.00,,,0.00,VWS V14.01,2013-01-15 07:48:00,
2013-01-15 01:53:00,16.1,13.9,30.29,South,189,1.0,6.0,91,0.00,,,0.00,VWS V14.01,2013-01-15 07:53:00,
2013-01-15 01:58:00,15.9,13.5,30.29,SSW,193,1.0,6.0,90,0.00,,,0.00,VWS V14.01,2013-01-15 07:58:00,
2013-01-15 02:00:00,15.6,13.2,30.29,SSW,192,2.0,6.0,90,0.00,,,0.00,VWS V14.01,2013-01-15 08:00:00,
2013-01-15 02:03:00,15.6,13.2,30.29,SSW,195,1.0,2.0,90,0.00,,,0.00,VWS V14.01,2013-01-15 08:03:00,
2013-01-15 02:08:00,15.2,13.1,30.29,SSW,195,0.0,2.0,91,0.00,,,0.00,VWS V14.01,2013-01-15 08:08:00,
2013-01-15 02:13:00,15.2,13.1,30.29,SSW,210,1.0,2.0,91,0.00,,,0.00,VWS V14.01,2013-01-15 08:13:00,
2013-01-15 02:15:00,15.2,12.8,30.29,SW,223,3.0,3.0,90,0.00,,,0.00,VWS V14.01,2013-01-15 08:15:00,
2013-01-15 02:18:00,15.2,12.8,30.29,SW,223,2.0,5.0,90,0.00,,,0.00,VWS V14.01,2013-01-15 08:18:00,
2013-01-15 02:23:00,14.9,12.8,30.29,WSW,239,0.0,5.0,91,0.00,,,0.00,VWS V14.01,2013-01-15 08:23:00,
2013-01-15 02:28:00,14.6,12.9,30.29,WSW,239,0.0,5.0,93,0.00,,,0.00,VWS V14.01,2013-01-15 08:28:00,
2013-01-15 02:30:00,14.4,13.0,30.30,WSW,239,0.0,5.0,94,0.00,,,0.00,VWS V14.01,2013-01-15 08:30:00,
2013-01-15 02:33:00,14.3,12.9,30.30,WSW,240,0.0,2.0,94,0.00,,,0.00,VWS V14.01,2013-01-15 08:33:00,
2013-01-15 02:38:00,13.8,12.9,30.30,WSW,240,2.0,2.0,96,0.00,,,0.00,VWS V14.01,2013-01-15 08:38:00,
2013-01-15 02:43:00,13.5,12.8,30.30,WSW,240,2.0,2.0,97,0.00,,,0.00,VWS V14.01,2013-01-15 08:43:00,
2013-01-15 02:45:00,13.3,12.6,30.30,WSW,237,1.0,2.0,97,0.00,,,0.00,VWS V14.01,2013-01-15 08:45:00,
2013-01-15 02:48:00,13.1,12.9,30.30,SW,233,2.0,2.0,99,0.00,,,0.00,VWS V14.01,2013-01-15 08:48:00,
2013-01-15 02:53:00,12.8,12.3,30.30,SW,233,0.0,2.0,98,0.00,,,0.00,VWS V14.01,2013-01-15 08:53:00,
2013-01-15 02:58:00,12.4,11.9,30.30,SW,233,1.0,2.0,98,0.00,,,0.00,VWS V14.01,2013-01-15 08:58:00,
2013-01-15 03:00:00,12.4,11.9,30.31,SW,233,0.0,2.0,98,0.00,,,0.00,VWS V14.01,2013-01-15 09:00:00,
2013-01-15 03:03:00,12.3,11.8,30.31,SW,233,1.0,1.0,98,0.00,,,0.00,VWS V14.01,2013-01-15 09:03:00,
2013-01-15 03:08:00,12.1,11.9,30.31,SW,232,1.0,2.0,99,0.00,,,0.00,VWS V14.01,2013-01-15 09:08:00,
2013-01-15 03:13:00,12.1,12.1,30.31,SW,216,1.0,2.0,100,0.00,,,0.00,VWS V14.01,2013-01-15 09:13:00,
2013-01-15 03:15:00,11.9,11.4,30.30,SSW,206,0.0,2.0,98,0.00,,,0.00,VWS V14.01,2013-01-15 09:15:00,
2013-01-15 03:20:00,11.9,11.9,30.30,SSW,200,2.0,2.0,100,0.00,,,0.00,VWS V14.01,2013-01-15 09:20:00,
2013-01-15 03:25:00,11.9,11.9,30.30,SSW,203,2.0,2.0,100,0.00,,,0.00,VWS V14.01,2013-01-15 09:25:00,
2013-01-15 03:30:00,11.9,11.9,30.30,SSW,202,1.0,2.0,100,0.00,,,0.00,VWS V14.01,2013-01-15 09:30:00,
2013-01-15 03:35:00,11.7,11.7,30.30,SSW,202,1.0,2.0,100,0.00,,,0.00,VWS V14.01,2013-01-15 09:35:00,
2013-01-15 03:40:00,11.7,11.7,30.30,SW,217,1.0,2.0,100,0.00,,,0.00,VWS V14.01,2013-01-15 09:40:00,
2013-01-15 03:45:00,11.9,11.9,30.30,SW,224,1.0,2.0,100,0.00,,,0.00,VWS V14.01,2013-01-15 09:45:00,
2013-01-15 03:50:00,11.7,11.7,30.30,WSW,239,1.0,2.0,100,0.00,,,0.00,VWS V14.01,2013-01-15 09:50:00,
2013-01-15 03:55:00,13.3,13.1,30.30,SW,233,6.0,8.0,99,0.00,,,0.00,VWS V14.01,2013-01-15 09:55:00,
2013-01-15 04:00:00,12.6,11.7,30.30,WSW,246,2.0,8.0,96,0.00,,,0.00,VWS V14.01,2013-01-15 10:00:00,
2013-01-15 04:05:00,11.7,11.2,30.30,WSW,247,0.0,2.0,98,0.00,,,0.00,VWS V14.01,2013-01-15 10:05:00,
2013-01-15 04:10:00,11.4,11.2,30.30,WSW,247,0.0,2.0,99,0.00,,,0.00,VWS V14.01,2013-01-15 10:10:00,
2013-01-15 04:15:00,11.4,11.4,30.30,WSW,247,2.0,2.0,100,0.00,,,0.00,VWS V14.01,2013-01-15 10:15:00,
2013-01-15 04:20:00,11.4,11.4,30.30,WSW,247,1.0,2.0,100,0.00,,,0.00,VWS V14.01,2013-01-15 10:20:00,
2013-01-15 04:25:00,11.4,11.4,30.30,WSW,247,0.0,2.0,100,0.00,,,0.00,VWS V14.01,2013-01-15 10:25:00,
2013-01-15 04:30:00,11.4,11.4,30.30,WSW,247,0.0,2.0,100,0.00,,,0.00,VWS V14.01,2013-01-15 10:30:00,
2013-01-15 04:35:00,11.4,11.4,30.30,WSW,247,1.0,1.0,100,0.00,,,0.00,VWS V14.01,2013-01-15 10:35:00,
2013-01-15 04:40:00,11.6,11.6,30.30,WSW,250,0.0,2.0,100,0.00,,,0.00,VWS V14.01,2013-01-15 10:40:00,
2013-01-15 04:45:00,11.4,11.4,30.29,WSW,250,0.0,2.0,100,0.00,,,0.00,VWS V14.01,2013-01-15 10:45:00,
2013-01-15 04:50:00,11.1,11.1,30.29,WSW,250,0.0,1.0,100,0.00,,,0.00,VWS V14.01,2013-01-15 10:50:00,
2013-01-15 04:55:00,10.9,10.9,30.29,WSW,250,0.0,2.0,100,0.00,,,0.00,VWS V14.01,2013-01-15 10:55:00,
2013-01-15 05:00:00,10.7,10.7,30.29,WSW,250,0.0,2.0,100,0.00,,,0.00,VWS V14.01,2013-01-15 11:00:00,
2013-01-15 05:05:00,10.5,10.5,30.29,WSW,248,1.0,2.0,100,0.00,,,0.00,VWS V14.01,2013-01-15 11:05:00,
2013-01-15 05:10:00,10.2,10.2,30.29,WSW,247,2.0,2.0,100,0.00,,,0.00,VWS V14.01,2013-01-15 11:10:00,
2013-01-15 05:15:00,9.9,9.9,30.30,WSW,247,1.0,2.0,100,0.00,,,0.00,VWS V14.01,2013-01-15 11:15:00,
2013-01-15 05:20:00,9.7,9.7,30.30,WSW,247,0.0,2.0,100,0.00,,,0.00,VWS V14.01,2013-01-15 11:20:00,
2013-01-15 05:25:00,9.5,9.5,30.30,WSW,247,1.0,2.0,100,0.00,,,0.00,VWS V14.01,2013-01-15 11:25:00,
2013-01-15 05:30:00,9.5,9.5,30.29,WSW,247,1.0,2.0,100,0.00,,,0.00,VWS V14.01,2013-01-15 11:30:00,
2013-01-15 05:35:00,9.5,9.5,30.29,WSW,247,0.0,2.0,100,0.00,,,0.00,VWS V14.01,2013-01-15 11:35:00,
2013-01-15 05:40:00,9.7,9.7,30.29,WSW,247,0.0,2.0,100,0.00,,,0.00,VWS V14.01,2013-01-15 11:40:00,
2013-01-15 05:45:00,9.9,9.9,30.29,SW,230,2.0,2.0,100,0.00,,,0.00,VWS V14.01,2013-01-15 11:45:00,
2013-01-15 05:50:00,9.7,9.7,30.29,SW,230,2.0,2.0,100,0.00,,,0.00,VWS V14.01,2013-01-15 11:50:00,
2013-01-15 05:55:00,9.9,9.9,30.29,SW,230,1.0,2.0,100,0.00,,,0.00,VWS V14.01,2013-01-15 11:55:00,
2013-01-15 06:00:00,10.0,10.0,30.31,WSW,241,0.0,1.0,100,0.00,,,0.00,VWS V14.01,2013-01-15 12:00:00,
2013-01-15 06:01:00,10.0,10.0,30.29,SW,230,1.0,2.0,100,0.00,,,0.00,VWS V14.01,2013-01-15 12:01:00,
2013-01-15 06:06:00,10.0,10.0,30.29,SW,229,0.0,2.0,100,0.00,,,0.00,VWS V14.01,2013-01-15 12:06:00,
2013-01-15 06:11:00,10.4,10.4,30.29,SW,227,0.0,2.0,100,0.00,,,0.00,VWS V14.01,2013-01-15 12:11:00,
2013-01-15 06:15:00,10.0,10.0,30.31,WSW,243,0.0,2.0,100,0.00,,,0.00,VWS V14.01,2013-01-15 12:15:00,
2013-01-15 06:16:00,10.5,10.5,30.29,SW,224,2.0,2.0,100,0.00,,,0.00,VWS V14.01,2013-01-15 12:16:00,
2013-01-15 06:21:00,10.9,10.9,30.29,SW,226,0.0,2.0,100,0.00,,,0.00,VWS V14.01,2013-01-15 12:21:00,
2013-01-15 06:26:00,10.9,10.9,30.29,SW,232,2.0,2.0,100,0.00,,,0.00,VWS V14.01,2013-01-15 12:26:00,
2013-01-15 06:30:00,9.5,9.5,30.31,WSW,246,1.0,2.0,100,0.00,,,0.00,VWS V14.01,2013-01-15 12:30:00,
2013-01-15 06:31:00,10.9,10.9,30.30,SW,226,2.0,2.0,100,0.00,,,0.00,VWS V14.01,2013-01-15 12:31:00,
2013-01-15 06:36:00,10.5,10.5,30.30,SW,226,0.0,2.0,100,0.00,,,0.00,VWS V14.01,2013-01-15 12:36:00,
2013-01-15 06:41:00,10.4,10.4,30.30,WSW,237,1.0,2.0,100,0.00,,,0.00,VWS V14.01,2013-01-15 12:41:00,
2013-01-15 06:45:00,9.0,9.0,30.31,WSW,253,0.0,2.0,100,0.00,,,0.00,VWS V14.01,2013-01-15 12:45:00,
2013-01-15 06:46:00,10.2,10.2,30.31,WSW,241,0.0,2.0,100,0.00,,,0.00,VWS V14.01,2013-01-15 12:46:00,
2013-01-15 06:51:00,9.9,9.9,30.31,WSW,241,0.0,1.0,100,0.00,,,0.00,VWS V14.01,2013-01-15 12:51:00,
2013-01-15 06:56:00,9.9,9.9,30.31,WSW,241,0.0,1.0,100,0.00,,,0.00,VWS V14.01,2013-01-15 12:56:00,
2013-01-15 07:00:00,7.9,7.9,30.30,WSW,250,1.0,2.0,100,0.00,,,0.00,VWS V14.01,2013-01-15 13:00:00,
2013-01-15 07:01:00,10.0,10.0,30.31,WSW,241,0.0,1.0,100,0.00,,,0.00,VWS V14.01,2013-01-15 13:01:00,
2013-01-15 07:06:00,10.0,10.0,30.31,WSW,243,0.0,1.0,100,0.00,,,0.00,VWS V14.01,2013-01-15 13:06:00,
2013-01-15 07:11:00,10.0,10.0,30.31,WSW,243,0.0,2.0,100,0.00,,,0.00,VWS V14.01,2013-01-15 13:11:00,
2013-01-15 07:15:00,8.8,8.8,30.30,WSW,251,1.0,2.0,100,0.00,,,0.00,VWS V14.01,2013-01-15 13:15:00,
2013-01-15 07:16:00,10.0,10.0,30.31,WSW,243,0.0,2.0,100,0.00,,,0.00,VWS V14.01,2013-01-15 13:16:00,
2013-01-15 07:21:00,9.9,9.9,30.31,WSW,243,0.0,0.0,100,0.00,,,0.00,VWS V14.01,2013-01-15 13:21:00,
2013-01-15 07:26:00,9.7,9.7,30.31,WSW,244,1.0,2.0,100,0.00,,,0.00,VWS V14.01,2013-01-15 13:26:00,
2013-01-15 07:30:00,9.9,9.9,30.30,West,275,2.0,2.0,100,0.00,,,0.00,VWS V14.01,2013-01-15 13:30:00,
2013-01-15 07:31:00,9.5,9.5,30.31,WSW,246,1.0,2.0,100,0.00,,,0.00,VWS V14.01,2013-01-15 13:31:00,
2013-01-15 07:36:00,9.3,9.3,30.31,WSW,246,1.0,2.0,100,0.00,,,0.00,VWS V14.01,2013-01-15 13:36:00,
2013-01-15 07:41:00,9.3,9.3,30.31,WSW,251,0.0,2.0,100,0.00,,,0.00,VWS V14.01,2013-01-15 13:41:00,
2013-01-15 07:45:00,10.5,10.5,30.31,West,280,2.0,2.0,100,0.00,,,0.00,VWS V14.01,2013-01-15 13:45:00,
2013-01-15 07:46:00,9.0,9.0,30.31,WSW,253,1.0,2.0,100,0.00,,,0.00,VWS V14.01,2013-01-15 13:46:00,
2013-01-15 07:51:00,8.6,8.6,30.31,WSW,250,1.0,2.0,100,0.00,,,0.00,VWS V14.01,2013-01-15 13:51:00,
2013-01-15 07:56:00,8.3,8.3,30.31,WSW,250,1.0,2.0,100,0.00,,,0.00,VWS V14.01,2013-01-15 13:56:00,
2013-01-15 08:00:00,10.5,10.5,30.31,West,280,0.0,3.0,100,0.00,,,0.00,VWS V14.01,2013-01-15 14:00:00,
2013-01-15 08:01:00,7.9,7.9,30.30,WSW,250,2.0,2.0,100,0.00,,,0.00,VWS V14.01,2013-01-15 14:01:00,
2013-01-15 08:06:00,7.7,7.7,30.30,WSW,250,2.0,2.0,100,0.00,,,0.00,VWS V14.01,2013-01-15 14:06:00,
2013-01-15 08:11:00,8.1,8.1,30.30,WSW,251,0.0,2.0,100,0.00,,,0.00,VWS V14.01,2013-01-15 14:11:00,
2013-01-15 08:15:00,10.5,10.5,30.32,West,277,0.0,2.0,100,0.00,,,0.00,VWS V14.01,2013-01-15 14:15:00,
2013-01-15 08:16:00,8.6,8.6,30.30,WSW,251,0.0,2.0,100,0.00,,,0.00,VWS V14.01,2013-01-15 14:16:00,
2013-01-15 08:21:00,9.0,9.0,30.30,WSW,251,2.0,2.0,100,0.00,,,0.00,VWS V14.01,2013-01-15 14:21:00,
2013-01-15 08:26:00,9.5,9.5,30.30,West,271,1.0,2.0,100,0.00,,,0.00,VWS V14.01,2013-01-15 14:26:00,
2013-01-15 08:30:00,11.2,11.2,30.32,WSW,253,1.0,2.0,100,0.00,,,0.00,VWS V14.01,2013-01-15 14:30:00,
2013-01-15 08:31:00,9.9,9.9,30.30,West,275,0.0,2.0,100,0.00,,,0.00,VWS V14.01,2013-01-15 14:31:00,
2013-01-15 08:36:00,10.2,10.2,30.30,West,278,0.0,2.0,100,0.00,,,0.00,VWS V14.01,2013-01-15 14:36:00,
2013-01-15 08:41:00,10.4,10.4,30.30,West,278,0.0,2.0,100,0.00,,,0.00,VWS V14.01,2013-01-15 14:41:00,
2013-01-15 08:45:00,12.9,11.5,30.31,WSW,248,1.0,3.0,94,0.00,,,0.00,VWS V14.01,2013-01-15 14:45:00,
2013-01-15 08:46:00,10.5,10.5,30.31,West,280,2.0,2.0,100,0.00,,,0.00,VWS V14.01,2013-01-15 14:46:00,
2013-01-15 08:51:00,10.7,10.7,30.31,West,280,2.0,3.0,100,0.00,,,0.00,VWS V14.01,2013-01-15 14:51:00,
2013-01-15 08:56:00,10.7,10.7,30.31,West,280,0.0,3.0,100,0.00,,,0.00,VWS V14.01,2013-01-15 14:56:00,
2013-01-15 09:00:00,14.4,10.7,30.30,WSW,247,1.0,5.0,85,0.00,,,0.00,VWS V14.01,2013-01-15 15:00:00,
2013-01-15 09:01:00,10.5,10.5,30.31,West,280,1.0,3.0,100,0.00,,,0.00,VWS V14.01,2013-01-15 15:01:00,
2013-01-15 09:06:00,10.5,10.5,30.31,West,280,1.0,2.0,100,0.00,,,0.00,VWS V14.01,2013-01-15 15:06:00,
2013-01-15 09:11:00,10.5,10.5,30.31,West,277,0.0,2.0,100,0.00,,,0.00,VWS V14.01,2013-01-15 15:11:00,
2013-01-15 09:15:00,16.1,11.0,30.29,WSW,243,2.0,5.0,80,0.00,,,0.00,VWS V14.01,2013-01-15 15:15:00,
2013-01-15 09:16:00,10.5,10.5,30.32,West,277,0.0,2.0,100,0.00,,,0.00,VWS V14.01,2013-01-15 15:16:00,
2013-01-15 09:21:00,10.7,10.7,30.32,West,274,2.0,2.0,100,0.00,,,0.00,VWS V14.01,2013-01-15 15:21:00,
2013-01-15 09:26:00,10.9,10.9,30.32,West,267,1.0,2.0,100,0.00,,,0.00,VWS V14.01,2013-01-15 15:26:00,
2013-01-15 09:30:00,18.0,10.8,30.28,WSW,258,1.0,5.0,73,0.00,,,0.00,VWS V14.01,2013-01-15 15:30:00,
2013-01-15 09:31:00,11.2,11.2,30.32,WSW,253,1.0,2.0,100,0.00,,,0.00,VWS V14.01,2013-01-15 15:31:00,
2013-01-15 09:36:00,11.7,10.8,30.32,WSW,254,2.0,2.0,96,0.00,,,0.00,VWS V14.01,2013-01-15 15:36:00,
2013-01-15 09:41:00,12.3,11.4,30.32,WSW,254,1.0,2.0,96,0.00,,,0.00,VWS V14.01,2013-01-15 15:41:00,
2013-01-15 09:45:00,19.9,9.7,30.28,WSW,253,6.0,6.0,64,0.00,,,0.00,VWS V14.01,2013-01-15 15:45:00,
2013-01-15 09:46:00,12.9,11.5,30.31,WSW,248,2.0,3.0,94,0.00,,,0.00,VWS V14.01,2013-01-15 15:46:00,
2013-01-15 09:51:00,13.6,11.2,30.31,WSW,251,2.0,3.0,90,0.00,,,0.00,VWS V14.01,2013-01-15 15:51:00,
2013-01-15 09:56:00,14.1,10.9,30.31,WSW,250,2.0,3.0,87,0.00,,,0.00,VWS V14.01,2013-01-15 15:56:00,
2013-01-15 10:00:00,20.6,9.3,30.28,WSW,241,10.0,10.0,61,0.00,,,0.00,VWS V14.01,2013-01-15 16:00:00,
2013-01-15 10:01:00,14.4,10.7,30.30,WSW,247,2.0,5.0,85,0.00,,,0.00,VWS V14.01,2013-01-15 16:01:00,
2013-01-15 10:06:00,14.8,9.8,30.30,WSW,253,2.0,5.0,80,0.00,,,0.00,VWS V14.01,2013-01-15 16:06:00,
2013-01-15 10:11:00,15.4,10.4,30.30,WSW,250,1.0,5.0,80,0.00,,,0.00,VWS V14.01,2013-01-15 16:11:00,
2013-01-15 10:15:00,22.2,9.3,30.28,West,265,2.0,13.0,57,0.00,,,0.00,VWS V14.01,2013-01-15 16:15:00,
2013-01-15 10:16:00,16.1,11.0,30.29,WSW,243,2.0,5.0,80,0.00,,,0.00,VWS V14.01,2013-01-15 16:16:00,
2013-01-15 10:21:00,16.7,11.3,30.29,WSW,250,2.0,4.0,79,0.00,,,0.00,VWS V14.01,2013-01-15 16:21:00,
2013-01-15 10:26:00,17.3,10.8,30.29,WSW,253,1.0,5.0,75,0.00,,,0.00,VWS V14.01,2013-01-15 16:26:00,
2013-01-15 10:30:00,23.2,8.6,30.26,West,270,5.0,10.0,53,0.00,,,0.00,VWS V14.01,2013-01-15 16:30:00,
2013-01-15 10:31:00,18.0,10.8,30.28,WSW,258,1.0,5.0,73,0.00,,,0.00,VWS V14.01,2013-01-15 16:31:00,
2013-01-15 10:36:00,18.8,8.6,30.28,WSW,254,5.0,6.0,64,0.00,,,0.00,VWS V14.01,2013-01-15 16:36:00,
2013-01-15 10:41:00,19.4,10.2,30.28,WSW,257,5.0,6.0,67,0.00,,,0.00,VWS V14.01,2013-01-15 16:41:00,
2013-01-15 10:45:00,23.0,7.1,30.25,West,275,3.0,10.0,50,0.00,,,0.00,VWS V14.01,2013-01-15 16:45:00,
2013-01-15 10:46:00,19.9,9.7,30.28,WSW,253,6.0,6.0,64,0.00,,,0.00,VWS V14.01,2013-01-15 16:46:00,
2013-01-15 10:51:00,20.0,9.1,30.28,West,261,4.0,8.0,62,0.00,,,0.00,VWS V14.01,2013-01-15 16:51:00,
2013-01-15 10:56:00,20.3,10.1,30.28,WSW,246,5.0,8.0,64,0.00,,,0.00,VWS V14.01,2013-01-15 16:56:00,
2013-01-15 11:00:00,22.9,6.2,30.24,West,274,2.0,10.0,48,0.00,,,0.00,VWS V14.01,2013-01-15 17:00:00,
2013-01-15 11:01:00,20.6,9.3,30.28,WSW,241,10.0,10.0,61,0.00,,,0.00,VWS V14.01,2013-01-15 17:01:00,
2013-01-15 11:06:00,21.4,8.9,30.28,West,264,4.0,13.0,58,0.00,,,0.00,VWS V14.01,2013-01-15 17:06:00,
2013-01-15 11:11:00,22.2,10.8,30.28,West,263,2.0,13.0,61,0.00,,,0.00,VWS V14.01,2013-01-15 17:11:00,
2013-01-15 11:15:00,23.9,8.9,30.21,West,261,2.0,10.0,52,0.00,,,0.00,VWS V14.01,2013-01-15 17:15:00,
2013-01-15 11:16:00,22.2,9.3,30.28,West,265,2.0,13.0,57,0.00,,,0.00,VWS V14.01,2013-01-15 17:16:00,
2013-01-15 11:21:00,22.1,8.4,30.28,WSW,251,6.0,10.0,55,0.00,,,0.00,VWS V14.01,2013-01-15 17:21:00,
2013-01-15 11:26:00,22.7,8.1,30.28,West,272,2.0,10.0,53,0.00,,,0.00,VWS V14.01,2013-01-15 17:26:00,
2013-01-15 11:30:00,23.9,8.9,30.20,West,272,2.0,10.0,52,0.00,,,0.00,VWS V14.01,2013-01-15 17:30:00,
2013-01-15 11:31:00,23.2,8.6,30.26,West,277,3.0,10.0,53,0.00,,,0.00,VWS V14.01,2013-01-15 17:31:00,
2013-01-15 11:36:00,23.0,7.1,30.26,WSW,253,6.0,7.0,50,0.00,,,0.00,VWS V14.01,2013-01-15 17:36:00,
2013-01-15 11:41:00,22.9,6.6,30.26,West,267,2.0,8.0,49,0.00,,,0.00,VWS V14.01,2013-01-15 17:41:00,
2013-01-15 11:45:00,23.8,6.5,30.19,West,264,5.0,7.0,47,0.00,,,0.00,VWS V14.01,2013-01-15 17:45:00,
2013-01-15 11:46:00,23.0,7.1,30.25,West,275,3.0,10.0,50,0.00,,,0.00,VWS V14.01,2013-01-15 17:46:00,
2013-01-15 11:51:00,22.9,6.2,30.25,WSW,254,9.0,9.0,48,0.00,,,0.00,VWS V14.01,2013-01-15 17:51:00,
2013-01-15 11:56:00,22.7,7.3,30.25,WSW,257,5.0,9.0,51,0.00,,,0.00,VWS V14.01,2013-01-15 17:56:00,
2013-01-15 12:00:00,24.8,8.4,30.18,WSW,237,5.0,5.0,49,0.00,,,0.00,VWS V14.01,2013-01-15 18:00:00,
2013-01-15 12:01:00,22.9,6.2,30.24,West,274,2.0,10.0,48,0.00,,,0.00,VWS V14.01,2013-01-15 18:01:00,
2013-01-15 12:06:00,23.6,8.6,30.24,WSW,239,6.0,6.0,52,0.00,,,0.00,VWS V14.01,2013-01-15 18:06:00,
2013-01-15 12:11:00,23.8,7.9,30.24,West,270,3.0,10.0,50,0.00,,,0.00,VWS V14.01,2013-01-15 18:11:00,
2013-01-15 12:15:00,25.0,6.2,30.18,WSW,240,6.0,11.0,44,0.00,,,0.00,VWS V14.01,2013-01-15 18:15:00,
2013-01-15 12:16:00,23.9,8.9,30.21,West,261,2.0,10.0,52,0.00,,,0.00,VWS V14.01,2013-01-15 18:16:00,
2013-01-15 12:21:00,23.8,8.3,30.21,WSW,237,7.0,8.0,51,0.00,,,0.00,VWS V14.01,2013-01-15 18:21:00,
2013-01-15 12:26:00,23.6,7.7,30.21,West,264,7.0,10.0,50,0.00,,,0.00,VWS V14.01,2013-01-15 18:26:00,
2013-01-15 12:30:00,25.4,7.5,30.17,WSW,253,5.0,12.0,46,0.00,,,0.00,VWS V14.01,2013-01-15 18:30:00,
2013-01-15 12:31:00,23.9,8.9,30.20,West,272,2.0,10.0,52,0.00,,,0.00,VWS V14.01,2013-01-15 18:31:00,
2013-01-15 12:36:00,24.1,8.6,30.20,WSW,244,5.0,5.0,51,0.00,,,0.00,VWS V14.01,2013-01-15 18:36:00,
2013-01-15 12:41:00,23.9,7.1,30.20,WSW,258,3.0,6.0,48,0.00,,,0.00,VWS V14.01,2013-01-15 18:41:00,
2013-01-15 12:45:00,25.6,5.7,30.16,WSW,246,8.0,13.0,42,0.00,,,0.00,VWS V14.01,2013-01-15 18:45:00,
2013-01-15 12:46:00,23.8,6.5,30.19,West,264,5.0,7.0,47,0.00,,,0.00,VWS V14.01,2013-01-15 18:46:00,
2013-01-15 12:51:00,24.1,4.3,30.19,West,263,2.0,5.0,42,0.00,,,0.00,VWS V14.01,2013-01-15 18:51:00,
2013-01-15 12:56:00,24.5,6.7,30.19,West,263,3.0,5.0,46,0.00,,,0.00,VWS V14.01,2013-01-15 18:56:00,
2013-01-15 13:00:00,26.3,4.7,30.16,West,265,2.0,11.0,39,0.00,,,0.00,VWS V14.01,2013-01-15 19:00:00,
2013-01-15 13:01:00,24.8,8.4,30.18,WSW,237,5.0,5.0,49,0.00,,,0.00,VWS V14.01,2013-01-15 19:01:00,
2013-01-15 13:06:00,25.0,4.1,30.18,WSW,243,9.0,11.0,40,0.00,,,0.00,VWS V14.01,2013-01-15 19:06:00,
2013-01-15 13:11:00,25.1,5.2,30.18,West,263,6.0,11.0,42,0.00,,,0.00,VWS V14.01,2013-01-15 19:11:00,
2013-01-15 13:15:00,26.6,3.8,30.17,West,268,3.0,11.0,37,0.00,,,0.00,VWS V14.01,2013-01-15 19:15:00,
2013-01-15 13:16:00,25.0,6.2,30.18,WSW,248,7.0,11.0,44,0.00,,,0.00,VWS V14.01,2013-01-15 19:16:00,
2013-01-15 13:21:00,25.6,6.7,30.18,West,271,2.0,8.0,44,0.00,,,0.00,VWS V14.01,2013-01-15 19:21:00,
2013-01-15 13:26:00,25.7,8.7,30.18,SW,234,8.0,12.0,48,0.00,,,0.00,VWS V14.01,2013-01-15 19:26:00,
2013-01-15 13:30:00,27.3,3.3,30.17,WSW,254,2.0,10.0,35,0.00,,,0.00,VWS V14.01,2013-01-15 19:30:00,
2013-01-15 13:31:00,25.4,7.5,30.17,WSW,253,5.0,12.0,46,0.00,,,0.00,VWS V14.01,2013-01-15 19:31:00,
2013-01-15 13:36:00,25.7,7.3,30.17,WSW,250,6.0,8.0,45,0.00,,,0.00,VWS V14.01,2013-01-15 19:36:00,
2013-01-15 13:41:00,25.6,7.7,30.17,WSW,251,5.0,13.0,46,0.00,,,0.00,VWS V14.01,2013-01-15 19:41:00,
2013-01-15 13:45:00,27.2,3.8,30.16,WSW,258,6.0,11.0,36,0.00,,,0.00,VWS V14.01,2013-01-15 19:45:00,
2013-01-15 13:46:00,25.6,5.7,30.16,WSW,246,8.0,13.0,42,0.00,,,0.00,VWS V14.01,2013-01-15 19:46:00,
2013-01-15 13:51:00,25.8,4.8,30.16,WSW,247,5.0,11.0,40,0.00,,,0.00,VWS V14.01,2013-01-15 19:51:00,
2013-01-15 13:56:00,26.0,3.9,30.16,WSW,243,8.0,11.0,38,0.00,,,0.00,VWS V14.01,2013-01-15 19:56:00,
2013-01-15 14:00:00,27.3,3.3,30.17,WSW,241,5.0,16.0,35,0.00,,,0.00,VWS V14.01,2013-01-15 20:00:00,
2013-01-15 14:01:00,26.3,4.7,30.16,West,265,2.0,11.0,39,0.00,,,0.00,VWS V14.01,2013-01-15 20:01:00,
2013-01-15 14:06:00,26.3,4.7,30.16,West,268,5.0,7.0,39,0.00,,,0.00,VWS V14.01,2013-01-15 20:06:00,
2013-01-15 14:11:00,26.1,2.8,30.16,WSW,254,6.0,8.0,36,0.00,,,0.00,VWS V14.01,2013-01-15 20:11:00,
2013-01-15 14:15:00,27.5,4.1,30.16,SW,233,7.0,12.0,36,0.00,,,0.00,VWS V14.01,2013-01-15 20:15:00,
2013-01-15 14:16:00,26.6,3.8,30.17,West,268,3.0,11.0,37,0.00,,,0.00,VWS V14.01,2013-01-15 20:16:00,
2013-01-15 14:21:00,27.2,3.8,30.17,WSW,251,7.0,7.0,36,0.00,,,0.00,VWS V14.01,2013-01-15 20:21:00,
2013-01-15 14:26:00,26.7,2.1,30.17,WSW,240,10.0,10.0,34,0.00,,,0.00,VWS V14.01,2013-01-15 20:26:00,
2013-01-15 14:30:00,27.6,5.9,30.16,WSW,241,5.0,11.0,39,0.00,,,0.00,VWS V14.01,2013-01-15 20:30:00,
2013-01-15 14:31:00,27.3,3.3,30.17,WSW,254,2.0,10.0,35,0.00,,,0.00,VWS V14.01,2013-01-15 20:31:00,
2013-01-15 14:36:00,27.6,3.5,30.17,WNW,285,3.0,5.0,35,0.00,,,0.00,VWS V14.01,2013-01-15 20:36:00,
2013-01-15 14:41:00,27.3,2.7,30.17,WSW,251,7.0,7.0,34,0.00,,,0.00,VWS V14.01,2013-01-15 20:41:00,
2013-01-15 14:45:00,27.8,7.2,30.16,WSW,237,7.0,12.0,41,0.00,,,0.00,VWS V14.01,2013-01-15 20:45:00,
2013-01-15 14:46:00,27.2,3.8,30.16,WSW,258,6.0,11.0,36,0.00,,,0.00,VWS V14.01,2013-01-15 20:46:00,
2013-01-15 14:51:00,27.5,3.5,30.16,WSW,243,7.0,10.0,35,0.00,,,0.00,VWS V14.01,2013-01-15 20:51:00,
2013-01-15 14:56:00,27.5,2.8,30.16,WSW,246,6.0,16.0,34,0.00,,,0.00,VWS V14.01,2013-01-15 20:56:00,
2013-01-15 15:00:00,27.8,6.6,30.16,SW,233,3.0,11.0,40,0.00,,,0.00,VWS V14.01,2013-01-15 21:00:00,
2013-01-15 15:01:00,27.3,3.3,30.17,WSW,246,5.0,5.0,35,0.00,,,0.00,VWS V14.01,2013-01-15 21:01:00,
2013-01-15 15:06:00,27.6,4.2,30.17,WSW,241,2.0,7.0,36,0.00,,,0.00,VWS V14.01,2013-01-15 21:06:00,
2013-01-15 15:11:00,27.8,4.3,30.17,WSW,241,5.0,11.0,36,0.00,,,0.00,VWS V14.01,2013-01-15 21:11:00,
2013-01-15 15:15:00,27.6,7.0,30.16,WSW,243,10.0,11.0,41,0.00,,,0.00,VWS V14.01,2013-01-15 21:15:00,
2013-01-15 15:16:00,27.5,4.1,30.16,SW,236,9.0,9.0,36,0.00,,,0.00,VWS V14.01,2013-01-15 21:16:00,
2013-01-15 15:21:00,27.6,4.8,30.16,SW,230,5.0,10.0,37,0.00,,,0.00,VWS V14.01,2013-01-15 21:21:00,
2013-01-15 15:26:00,27.5,5.2,30.16,SW,236,6.0,11.0,38,0.00,,,0.00,VWS V14.01,2013-01-15 21:26:00,
2013-01-15 15:30:00,27.5,6.9,30.16,SW,224,7.0,12.0,41,0.00,,,0.00,VWS V14.01,2013-01-15 21:30:00,
2013-01-15 15:31:00,27.6,5.9,30.16,WSW,241,5.0,11.0,39,0.00,,,0.00,VWS V14.01,2013-01-15 21:31:00,
2013-01-15 15:36:00,27.8,4.9,30.16,SW,236,5.0,12.0,37,0.00,,,0.00,VWS V14.01,2013-01-15 21:36:00,
2013-01-15 15:41:00,27.8,6.1,30.16,SW,219,10.0,12.0,39,0.00,,,0.00,VWS V14.01,2013-01-15 21:41:00,
2013-01-15 15:45:00,27.3,8.3,30.16,WSW,239,4.0,11.0,44,0.00,,,0.00,VWS V14.01,2013-01-15 21:45:00,
2013-01-15 15:46:00,27.8,7.2,30.16,WSW,237,7.0,12.0,41,0.00,,,0.00,VWS V14.01,2013-01-15 21:46:00,
2013-01-15 15:51:00,27.5,6.4,30.16,WSW,251,4.0,8.0,40,0.00,,,0.00,VWS V14.01,2013-01-15 21:51:00,
2013-01-15 15:56:00,27.5,6.4,30.16,WSW,244,10.0,11.0,40,0.00,,,0.00,VWS V14.01,2013-01-15 21:56:00,
2013-01-15 16:00:00,26.7,10.6,30.15,WSW,237,5.0,7.0,50,0.00,,,0.00,VWS V14.01,2013-01-15 22:00:00,
2013-01-15 16:01:00,27.8,6.6,30.16,WSW,239,4.0,4.0,40,0.00,,,0.00,VWS V14.01,2013-01-15 22:01:00,
2013-01-15 16:06:00,27.8,7.2,30.16,WSW,240,7.0,8.0,41,0.00,,,0.00,VWS V14.01,2013-01-15 22:06:00,
2013-01-15 16:11:00,27.8,5.5,30.16,WSW,239,6.0,8.0,38,0.00,,,0.00,VWS V14.01,2013-01-15 22:11:00,
2013-01-15 16:15:00,25.8,10.2,30.16,SW,226,5.0,7.0,51,0.00,,,0.00,VWS V14.01,2013-01-15 22:15:00,
2013-01-15 16:16:00,27.6,7.0,30.16,WSW,246,8.0,10.0,41,0.00,,,0.00,VWS V14.01,2013-01-15 22:16:00,
2013-01-15 16:21:00,27.6,7.0,30.16,WSW,243,3.0,12.0,41,0.00,,,0.00,VWS V14.01,2013-01-15 22:21:00,
2013-01-15 16:26:00,27.5,6.9,30.16,WSW,241,8.0,12.0,41,0.00,,,0.00,VWS V14.01,2013-01-15 22:26:00,
2013-01-15 16:30:00,24.7,12.0,30.17,SW,219,4.0,6.0,58,0.00,,,0.00,VWS V14.01,2013-01-15 22:30:00,
2013-01-15 16:31:00,27.5,6.9,30.16,SW,232,6.0,7.0,41,0.00,,,0.00,VWS V14.01,2013-01-15 22:31:00,
2013-01-15 16:36:00,27.3,8.3,30.16,SW,234,5.0,7.0,44,0.00,,,0.00,VWS V14.01,2013-01-15 22:36:00,
2013-01-15 16:41:00,27.3,8.3,30.16,WSW,243,6.0,7.0,44,0.00,,,0.00,VWS V14.01,2013-01-15 22:41:00,
2013-01-15 16:45:00,23.5,12.0,30.16,SW,217,4.0,7.0,61,0.00,,,0.00,VWS V14.01,2013-01-15 22:45:00,
2013-01-15 16:46:00,27.3,8.3,30.16,WSW,253,2.0,4.0,44,0.00,,,0.00,VWS V14.01,2013-01-15 22:46:00,
2013-01-15 16:51:00,27.2,9.2,30.16,WSW,251,3.0,7.0,46,0.00,,,0.00,VWS V14.01,2013-01-15 22:51:00,
2013-01-15 16:56:00,26.9,10.3,30.16,SW,236,5.0,7.0,49,0.00,,,0.00,VWS V14.01,2013-01-15 22:56:00,
2013-01-15 17:00:00,22.7,12.0,30.17,SW,220,3.0,5.0,63,0.00,,,0.00,VWS V14.01,2013-01-15 23:00:00,
2013-01-15 17:01:00,26.7,10.6,30.15,SW,226,5.0,5.0,50,0.00,,,0.00,VWS V14.01,2013-01-15 23:01:00,
2013-01-15 17:06:00,26.4,10.7,30.15,SW,227,4.0,7.0,51,0.00,,,0.00,VWS V14.01,2013-01-15 23:06:00,
2013-01-15 17:11:00,26.1,10.0,30.15,SW,232,4.0,7.0,50,0.00,,,0.00,VWS V14.01,2013-01-15 23:11:00,
2013-01-15 17:16:00,25.8,10.2,30.16,SW,226,3.0,5.0,51,0.00,,,0.00,VWS V14.01,2013-01-15 23:16:00,
2013-01-15 17:21:00,25.4,10.7,30.16,SW,232,5.0,6.0,53,0.00,,,0.00,VWS V14.01,2013-01-15 23:21:00,
2013-01-15 17:26:00,25.1,10.8,30.16,SW,215,3.0,6.0,54,0.00,,,0.00,VWS V14.01,2013-01-15 23:26:00,
2013-01-15 17:30:00,22.5,12.2,30.17,SW,230,3.0,5.0,64,0.00,,,0.00,VWS V14.01,2013-01-15 23:30:00,
2013-01-15 17:31:00,24.7,11.6,30.17,SW,219,4.0,6.0,57,0.00,,,0.00,VWS V14.01,2013-01-15 23:31:00,
2013-01-15 17:36:00,24.2,11.6,30.17,SW,216,4.0,7.0,58,0.00,,,0.00,VWS V14.01,2013-01-15 23:36:00,
2013-01-15 17:41:00,23.8,12.0,30.17,SSW,210,5.0,7.0,60,0.00,,,0.00,VWS V14.01,2013-01-15 23:41:00,
2013-01-15 17:45:00,23.0,13.0,30.17,WSW,239,3.0,5.0,65,0.00,,,0.00,VWS V14.01,2013-01-15 23:45:00,
2013-01-15 17:46:00,23.5,12.0,30.16,SW,224,5.0,5.0,61,0.00,,,0.00,VWS V14.01,2013-01-15 23:46:00,
2013-01-15 17:51:00,23.2,11.8,30.16,SW,222,2.0,5.0,61,0.00,,,0.00,VWS V14.01,2013-01-15 23:51:00,
2013-01-15 17:56:00,22.9,12.2,30.16,SW,220,2.0,5.0,63,0.00,,,0.00,VWS V14.01,2013-01-15 23:56:00,
2013-01-15 18:00:00,22.1,12.8,30.17,WSW,244,2.0,5.0,67,0.00,,,0.00,VWS V14.01,2013-01-16 00:00:00,
2013-01-15 18:01:00,22.7,12.0,30.17,SW,223,3.0,5.0,63,0.00,,,0.00,VWS V14.01,2013-01-16 00:01:00,
2013-01-15 18:06:00,22.7,12.0,30.17,SW,223,2.0,5.0,63,0.00,,,0.00,VWS V14.01,2013-01-16 00:06:00,
2013-01-15 18:11:00,22.7,12.4,30.17,SW,222,2.0,5.0,64,0.00,,,0.00,VWS V14.01,2013-01-16 00:11:00,
2013-01-15 18:15:00,21.3,12.4,30.19,WSW,246,3.0,5.0,68,0.00,,,0.00,VWS V14.01,2013-01-16 00:15:00,
2013-01-15 18:16:00,22.5,12.5,30.17,SW,215,2.0,2.0,65,0.00,,,0.00,VWS V14.01,2013-01-16 00:16:00,
2013-01-15 18:21:00,22.5,12.5,30.17,SW,222,2.0,5.0,65,0.00,,,0.00,VWS V14.01,2013-01-16 00:21:00,
2013-01-15 18:26:00,22.5,12.5,30.17,SW,223,1.0,5.0,65,0.00,,,0.00,VWS V14.01,2013-01-16 00:26:00,
2013-01-15 18:30:00,20.6,12.4,30.18,WSW,240,2.0,5.0,70,0.00,,,0.00,VWS V14.01,2013-01-16 00:30:00,
2013-01-15 18:31:00,22.5,12.2,30.17,SW,236,2.0,3.0,64,0.00,,,0.00,VWS V14.01,2013-01-16 00:31:00,
2013-01-15 18:36:00,22.9,12.9,30.17,SW,234,2.0,5.0,65,0.00,,,0.00,VWS V14.01,2013-01-16 00:36:00,
2013-01-15 18:41:00,23.0,13.0,30.17,WSW,237,3.0,5.0,65,0.00,,,0.00,VWS V14.01,2013-01-16 00:41:00,
2013-01-15 18:45:00,20.0,13.1,30.17,SW,236,5.0,5.0,74,0.00,,,0.00,VWS V14.01,2013-01-16 00:45:00,
2013-01-15 18:46:00,23.0,13.0,30.17,SW,226,2.0,3.0,65,0.00,,,0.00,VWS V14.01,2013-01-16 00:46:00,
2013-01-15 18:51:00,22.7,13.1,30.17,SW,234,3.0,5.0,66,0.00,,,0.00,VWS V14.01,2013-01-16 00:51:00,
2013-01-15 18:56:00,22.4,12.8,30.17,WSW,239,2.0,5.0,66,0.00,,,0.00,VWS V14.01,2013-01-16 00:56:00,
2013-01-15 19:00:00,20.0,12.8,30.17,WSW,243,2.0,5.0,73,0.00,,,0.00,VWS V14.01,2013-01-16 01:00:00,
2013-01-15 19:01:00,22.1,12.8,30.17,WSW,244,2.0,3.0,67,0.00,,,0.00,VWS V14.01,2013-01-16 01:01:00,
2013-01-15 19:06:00,21.6,12.7,30.17,WSW,240,3.0,5.0,68,0.00,,,0.00,VWS V14.01,2013-01-16 01:06:00,
2013-01-15 19:11:00,21.4,11.8,30.17,WSW,246,2.0,5.0,66,0.00,,,0.00,VWS V14.01,2013-01-16 01:11:00,
2013-01-15 19:16:00,21.4,12.5,30.19,WSW,248,3.0,5.0,68,0.00,,,0.00,VWS V14.01,2013-01-16 01:16:00,
2013-01-15 19:21:00,21.1,12.5,30.19,WSW,246,2.0,5.0,69,0.00,,,0.00,VWS V14.01,2013-01-16 01:21:00,
2013-01-15 19:26:00,21.0,12.1,30.19,WSW,241,1.0,5.0,68,0.00,,,0.00,VWS V14.01,2013-01-16 01:26:00,
2013-01-15 19:30:00,19.4,13.1,30.15,WSW,246,2.0,5.0,76,0.00,,,0.00,VWS V14.01,2013-01-16 01:30:00,
2013-01-15 19:31:00,20.6,12.4,30.18,WSW,243,2.0,3.0,70,0.00,,,0.00,VWS V14.01,2013-01-16 01:31:00,
2013-01-15 19:36:00,20.3,12.4,30.18,WSW,241,2.0,5.0,71,0.00,,,0.00,VWS V14.01,2013-01-16 01:36:00,
2013-01-15 19:41:00,20.0,12.1,30.18,SW,233,3.0,5.0,71,0.00,,,0.00,VWS V14.01,2013-01-16 01:41:00,
2013-01-15 19:45:00,19.4,13.1,30.14,WSW,243,3.0,5.0,76,0.00,,,0.00,VWS V14.01,2013-01-16 01:45:00,
2013-01-15 19:46:00,20.0,12.8,30.17,WSW,239,2.0,5.0,73,0.00,,,0.00,VWS V14.01,2013-01-16 01:46:00,
2013-01-15 19:51:00,20.2,12.9,30.17,SW,229,3.0,5.0,73,0.00,,,0.00,VWS V14.01,2013-01-16 01:51:00,
2013-01-15 19:56:00,20.2,12.6,30.17,WSW,239,2.0,5.0,72,0.00,,,0.00,VWS V14.01,2013-01-16 01:56:00,
2013-01-15 20:00:00,19.4,13.4,30.13,WSW,247,5.0,5.0,77,0.00,,,0.00,VWS V14.01,2013-01-16 02:00:00,
2013-01-15 20:01:00,20.0,12.8,30.17,WSW,247,2.0,4.0,73,0.00,,,0.00,VWS V14.01,2013-01-16 02:01:00,
2013-01-15 20:06:00,19.9,12.3,30.17,WSW,243,3.0,5.0,72,0.00,,,0.00,VWS V14.01,2013-01-16 02:06:00,
2013-01-15 20:11:00,19.9,12.7,30.17,WSW,253,0.0,5.0,73,0.00,,,0.00,VWS V14.01,2013-01-16 02:11:00,
2013-01-15 20:15:00,18.9,13.2,30.12,WSW,243,2.0,6.0,78,0.00,,,0.00,VWS V14.01,2013-01-16 02:15:00,
2013-01-15 20:16:00,19.7,12.8,30.16,WSW,247,2.0,2.0,74,0.00,,,0.00,VWS V14.01,2013-01-16 02:16:00,
2013-01-15 20:21:00,19.5,12.9,30.16,WSW,247,2.0,5.0,75,0.00,,,0.00,VWS V14.01,2013-01-16 02:21:00,
2013-01-15 20:26:00,19.4,12.8,30.16,WSW,243,2.0,5.0,75,0.00,,,0.00,VWS V14.01,2013-01-16 02:26:00,
2013-01-15 20:30:00,18.8,13.7,30.12,WSW,248,1.0,3.0,80,0.00,,,0.00,VWS V14.01,2013-01-16 02:30:00,
2013-01-15 20:31:00,19.4,13.1,30.15,WSW,246,2.0,5.0,76,0.00,,,0.00,VWS V14.01,2013-01-16 02:31:00,
2013-01-15 20:36:00,19.4,13.1,30.15,WSW,247,2.0,5.0,76,0.00,,,0.00,VWS V14.01,2013-01-16 02:36:00,
2013-01-15 20:41:00,19.4,13.1,30.15,WSW,241,4.0,5.0,76,0.00,,,0.00,VWS V14.01,2013-01-16 02:41:00,
2013-01-15 20:45:00,18.8,13.7,30.13,WSW,247,2.0,3.0,80,0.00,,,0.00,VWS V14.01,2013-01-16 02:45:00,
2013-01-15 20:46:00,19.4,12.5,30.14,WSW,240,3.0,3.0,74,0.00,,,0.00,VWS V14.01,2013-01-16 02:46:00,
2013-01-15 20:51:00,19.2,13.2,30.14,WSW,241,2.0,5.0,77,0.00,,,0.00,VWS V14.01,2013-01-16 02:51:00,
2013-01-15 20:56:00,19.2,12.6,30.14,WSW,240,5.0,5.0,75,0.00,,,0.00,VWS V14.01,2013-01-16 02:56:00,
2013-01-15 21:00:00,18.9,14.1,30.12,WSW,250,1.0,5.0,81,0.00,,,0.00,VWS V14.01,2013-01-16 03:00:00,
2013-01-15 21:01:00,19.4,13.4,30.13,WSW,241,2.0,5.0,77,0.00,,,0.00,VWS V14.01,2013-01-16 03:01:00,
2013-01-15 21:06:00,19.2,13.5,30.13,WSW,243,2.0,5.0,78,0.00,,,0.00,VWS V14.01,2013-01-16 03:06:00,
2013-01-15 21:11:00,19.1,13.4,30.13,WSW,244,3.0,5.0,78,0.00,,,0.00,VWS V14.01,2013-01-16 03:11:00,
2013-01-15 21:15:00,19.2,14.3,30.10,WSW,253,2.0,3.0,81,0.00,,,0.00,VWS V14.01,2013-01-16 03:15:00,
2013-01-15 21:16:00,18.9,13.5,30.12,WSW,244,3.0,3.0,79,0.00,,,0.00,VWS V14.01,2013-01-16 03:16:00,
2013-01-15 21:21:00,18.8,13.1,30.12,WSW,250,2.0,3.0,78,0.00,,,0.00,VWS V14.01,2013-01-16 03:21:00,
2013-01-15 21:26:00,18.8,13.4,30.12,WSW,248,2.0,3.0,79,0.00,,,0.00,VWS V14.01,2013-01-16 03:26:00,
2013-01-15 21:30:00,19.1,14.2,30.08,WSW,256,0.0,5.0,81,0.00,,,0.00,VWS V14.01,2013-01-16 03:30:00,
2013-01-15 21:31:00,18.8,13.7,30.12,WSW,250,2.0,3.0,80,0.00,,,0.00,VWS V14.01,2013-01-16 03:31:00,
2013-01-15 21:36:00,18.8,13.7,30.12,WSW,251,2.0,3.0,80,0.00,,,0.00,VWS V14.01,2013-01-16 03:36:00,
2013-01-15 21:41:00,18.8,13.7,30.12,WSW,248,2.0,3.0,80,0.00,,,0.00,VWS V14.01,2013-01-16 03:41:00,
2013-01-15 21:45:00,18.9,14.3,30.08,WSW,257,2.0,5.0,82,0.00,,,0.00,VWS V14.01,2013-01-16 03:45:00,
2013-01-15 21:46:00,18.6,13.8,30.13,WSW,248,2.0,2.0,81,0.00,,,0.00,VWS V14.01,2013-01-16 03:46:00,
2013-01-15 21:51:00,18.6,13.8,30.13,WSW,254,2.0,3.0,81,0.00,,,0.00,VWS V14.01,2013-01-16 03:51:00,
2013-01-15 21:56:00,18.8,13.9,30.13,WSW,248,2.0,5.0,81,0.00,,,0.00,VWS V14.01,2013-01-16 03:56:00,
2013-01-15 22:00:00,18.9,14.6,30.08,West,268,2.0,3.0,83,0.00,,,0.00,VWS V14.01,2013-01-16 04:00:00,
2013-01-15 22:01:00,18.9,14.3,30.12,WSW,250,3.0,3.0,82,0.00,,,0.00,VWS V14.01,2013-01-16 04:01:00,
2013-01-15 22:06:00,19.2,14.6,30.12,WSW,256,2.0,3.0,82,0.00,,,0.00,VWS V14.01,2013-01-16 04:06:00,
2013-01-15 22:11:00,19.2,14.3,30.12,WSW,254,2.0,3.0,81,0.00,,,0.00,VWS V14.01,2013-01-16 04:11:00,
2013-01-15 22:15:00,20.2,15.3,30.07,WSW,254,2.0,5.0,81,0.00,,,0.00,VWS V14.01,2013-01-16 04:15:00,
2013-01-15 22:16:00,19.2,14.3,30.10,WSW,250,1.0,2.0,81,0.00,,,0.00,VWS V14.01,2013-01-16 04:16:00,
2013-01-15 22:21:00,19.2,14.3,30.10,West,261,1.0,3.0,81,0.00,,,0.00,VWS V14.01,2013-01-16 04:21:00,
2013-01-15 22:26:00,19.2,14.3,30.10,WSW,256,0.0,5.0,81,0.00,,,0.00,VWS V14.01,2013-01-16 04:26:00,
2013-01-15 22:30:00,20.6,16.0,30.05,WSW,258,1.0,5.0,82,0.00,,,0.00,VWS V14.01,2013-01-16 04:30:00,
2013-01-15 22:31:00,19.1,14.2,30.08,WSW,256,2.0,2.0,81,0.00,,,0.00,VWS V14.01,2013-01-16 04:31:00,
2013-01-15 22:36:00,19.1,14.8,30.08,WSW,258,1.0,2.0,83,0.00,,,0.00,VWS V14.01,2013-01-16 04:36:00,
2013-01-15 22:41:00,18.9,14.3,30.08,WSW,258,1.0,3.0,82,0.00,,,0.00,VWS V14.01,2013-01-16 04:41:00,
2013-01-15 22:45:00,22.4,16.6,30.06,West,261,0.0,4.0,78,0.00,,,0.00,VWS V14.01,2013-01-16 04:45:00,
2013-01-15 22:46:00,18.9,14.3,30.08,WSW,257,1.0,2.0,82,0.00,,,0.00,VWS V14.01,2013-01-16 04:46:00,
2013-01-15 22:51:00,18.9,14.9,30.08,WSW,257,2.0,3.0,84,0.00,,,0.00,VWS V14.01,2013-01-16 04:51:00,
2013-01-15 22:56:00,18.9,14.6,30.08,WSW,253,2.0,3.0,83,0.00,,,0.00,VWS V14.01,2013-01-16 04:56:00,
2013-01-15 23:00:00,18.9,14.6,30.08,West,264,2.0,3.0,83,0.00,,,0.00,VWS V14.01,2013-01-16 05:00:00,
2013-01-15 23:01:00,19.1,14.8,30.08,West,268,2.0,2.0,83,0.00,,,0.00,VWS V14.01,2013-01-16 05:01:00,
2013-01-15 23:06:00,19.2,14.6,30.08,West,280,0.0,5.0,82,0.00,,,0.00,VWS V14.01,2013-01-16 05:06:00,
2013-01-15 23:11:00,19.7,14.8,30.08,West,264,2.0,5.0,81,0.00,,,0.00,VWS V14.01,2013-01-16 05:11:00,
2013-01-15 23:15:00,23.6,17.8,30.04,WSW,256,2.0,5.0,78,0.00,,,0.00,VWS V14.01,2013-01-16 05:15:00,
2013-01-15 23:16:00,20.2,15.0,30.07,WSW,254,2.0,2.0,80,0.00,,,0.00,VWS V14.01,2013-01-16 05:16:00,
2013-01-15 23:21:00,20.2,15.3,30.07,WSW,257,1.0,2.0,81,0.00,,,0.00,VWS V14.01,2013-01-16 05:21:00,
2013-01-15 23:26:00,20.5,15.6,30.07,West,260,1.0,2.0,81,0.00,,,0.00,VWS V14.01,2013-01-16 05:26:00,
2013-01-15 23:30:00,24.2,18.6,30.04,West,265,1.0,6.0,79,0.00,,,0.00,VWS V14.01,2013-01-16 05:30:00,
2013-01-15 23:31:00,20.6,15.4,30.05,West,260,1.0,2.0,80,0.00,,,0.00,VWS V14.01,2013-01-16 05:31:00,
2013-01-15 23:36:00,21.1,15.9,30.05,West,274,1.0,2.0,80,0.00,,,0.00,VWS V14.01,2013-01-16 05:36:00,
2013-01-15 23:41:00,21.8,16.3,30.05,West,278,2.0,3.0,79,0.00,,,0.00,VWS V14.01,2013-01-16 05:41:00,
2013-01-15 23:45:00,24.4,18.2,30.04,WSW,248,4.0,5.0,77,0.00,,,0.00,VWS V14.01,2013-01-16 05:45:00,
2013-01-15 23:46:00,22.4,16.6,30.06,West,263,1.0,1.0,78,0.00,,,0.00,VWS V14.01,2013-01-16 05:46:00,
2013-01-15 23:51:00,22.9,16.8,30.06,West,278,3.0,5.0,77,0.00,,,0.00,VWS V14.01,2013-01-16 05:51:00,
2013-01-15 23:56:00,23.2,17.1,30.06,West,264,1.0,5.0,77,0.00,,,0.00,VWS V14.01,2013-01-16 05:56:00,